Location: Ellingshausen
(50.5460°N, 10.4723°E)
Time: 15:17:17
(UTC+00:00)

SOZ - Visible Passes

Search period start: 19 April 2026 00:00
Search period end: 29 April 2026 00:00
Orbit: 322 x 16049 km, 51.9° (Epoch: 19 April)

Date Brightness Start Highest point End Pass type
(mag) Time Alt. Az. Time Alt. Az. Time Alt. Az.
21 Apr 5.2 19:05:29 10° W 19:13:15 80° N 19:16:04 10° E visible
22 Apr 4.9 19:24:48 10° WNW 19:31:29 89° NNE 19:33:38 15° ESE visible
23 Apr 4.6 19:43:53 10° WNW 19:49:38 76° SSW 19:51:12 23° ESE visible
24 Apr 4.7 20:02:46 10° WNW 20:07:39 57° SSW 20:08:41 31° SE visible
25 Apr 4.9 20:21:31 10° WNW 20:25:34 39° SW 20:26:09 34° S visible
26 Apr 5.5 20:40:11 10° WNW 20:43:22 26° SW 20:43:33 26° SW visible
27 Apr 6.3 20:58:53 10° W 21:00:56 17° SW 21:00:56 17° SW visible
28 Apr 6.9 21:18:15 10° WSW 21:18:16 10° WSW 21:18:16 10° WSW visible
